SCP
0 0 0 0 0 0 0 0 0 0 0 0 0 0 0 0 0 0 0 0 0 0
0 0 0 0 0 0 0 0 0 0 0 0 0 0 0 0 0 0 0 0 0 0
0 0 0 0 0 0 0 0 0 0 0 0 0 0 0 0 0 0 0 0 0 0
0 0 0 0 0 0 0 0 0 0 0 0 0 0 0 0 0 0 0 0 0 0
0 0 0 0 0 0 0 0 0 0 0 0 0 0 0 0 0 0 0 0 0 0
0 0 0 0 0 0 0 0 0 0 0 0 0 0 0 0 0 0 0 0 0 0
0 0 0 0 0 0 0 0 0 0 0 0 0 0 0 0 0 0 0 0 0 0
0 0 0 0 0 0 0 0 0 0 0 0 0 0 0 0 0 0 0 0 0 0
0 0 0 0 0 0 0 0 0 0 0 0 0 0 0 0 0 0 0 0 0 0
0 0 0 0 0 0 0 0 0 0 0 0 0 0 0 0 0 0 0 0 0 0
0 0 0 0 0 0 0 0 0 0 0 0 0 0 0 0 0 0 0 0 0 0
-0 0 0 0 0 0 0 0 0 0 0 0 0 0 0 0 0 0 0 0 0 0
-0 -0 0 0 0 0 0 0 0 0 0 0 0 0 0 0 0 0 0 0 0 0
0 0 -0 0 0 0 0 0 0 0 0 0 0 0 0 0 0 0 0 0 0 0
Wind_Speed_500mb
85 93 97 95 98 97 102 106 112 111 109 111 112 112 112 109 104 100 95 91 87 82
72 85 94 93 93 97 96 103 110 114 112 109 111 116 114 114 111 108 103 98 93 87
49 68 86 90 95 94 95 96 101 111 118 112 108 108 114 114 112 109 109 105 99 93
49 51 62 85 91 94 96 97 99 103 112 116 109 103 106 113 110 107 107 107 106 100
50 51 53 66 83 89 93 95 100 99 100 100 109 104 102 109 110 107 107 108 107 104
54 55 59 61 66 80 90 91 94 100 101 100 100 108 105 104 109 107 105 106 107 102
65 59 58 63 65 70 82 91 91 99 100 100 100 103 105 103 107 106 103 104 103 100
72 70 68 64 67 69 74 85 90 96 101 100 100 100 102 106 106 106 102 102 99 98
74 69 75 69 65 68 73 80 84 93 99 102 102 99 100 104 105 103 102 102 100 96
75 70 71 78 69 71 76 76 88 92 94 101 102 98 96 97 100 102 104 102 98 93
82 80 71 70 77 72 76 80 87 92 94 94 100 93 93 91 94 101 100 100 94 91
87 89 85 74 77 79 73 79 83 91 89 89 91 87 73 82 93 103 96 95 92 95
92 93 92 84 79 80 74 76 73 83 90 86 85 74 61 67 87 98 91 95 95 91
95 96 95 86 84 75 75 71 65 76 84 88 85 85 71 75 88 91 90 91 95 68
Wind_Direction_500mb
250 251 251 247 247 245 245 249 259 257 252 248 246 246 246 245 245 246 245 245 245 244
255 253 252 253 248 245 244 246 251 257 257 252 247 245 246 245 245 245 244 244 246 245
288 261 256 253 253 248 245 243 243 249 257 256 250 245 244 243 244 242 243 243 244 243
306 288 267 255 253 254 249 245 243 244 251 256 254 248 242 242 241 238 241 242 242 242
296 297 285 270 257 252 252 248 245 243 245 245 253 253 244 240 240 238 239 240 240 240
298 296 297 287 277 258 251 250 246 244 242 241 243 251 249 241 240 240 240 241 240 239
306 300 298 297 280 270 257 252 246 242 243 241 241 242 248 244 239 239 239 240 239 239
307 306 295 295 290 273 263 257 250 246 243 241 242 240 242 248 241 239 239 238 237 238
311 306 300 290 288 278 265 257 252 248 246 242 240 238 240 249 247 241 239 237 236 236
320 305 307 298 290 280 271 260 251 249 248 247 243 241 238 246 250 244 241 239 236 233
328 315 305 306 298 286 275 264 258 253 251 250 248 245 241 244 248 245 242 240 237 231
322 322 313 302 303 297 283 269 259 258 255 252 250 245 243 255 247 242 239 238 234 232
320 317 318 306 298 296 288 281 261 260 259 255 247 244 240 241 244 241 235 237 238 225
319 314 313 310 298 291 286 279 262 258 259 255 250 242 235 233 234 230 237 234 228 236
Wind_Speed_850mb
85 93 97 95 98 97 102 106 112 111 109 111 112 112 112 109 104 100 95 91 87 82
72 85 94 93 93 97 96 103 110 114 112 109 111 116 114 114 111 108 103 98 93 87
49 68 86 90 95 94 95 96 101 111 118 112 108 108 114 114 112 109 109 105 99 93
49 51 62 85 91 94 96 97 99 103 112 116 109 103 106 113 110 107 107 107 106 100
50 51 53 66 83 89 93 95 100 99 100 100 109 104 102 109 110 107 107 108 107 104
54 55 59 61 66 80 90 91 94 100 101 100 100 108 105 104 109 107 105 106 107 102
65 59 58 63 65 70 82 91 91 99 100 100 100 103 105 103 107 106 103 104 103 100
72 70 68 64 67 69 74 85 90 96 101 100 100 100 102 106 106 106 102 102 99 98
74 69 75 69 65 68 73 80 84 93 99 102 102 99 100 104 105 103 102 102 100 96
75 70 71 78 69 71 76 76 88 92 94 101 102 98 96 97 100 102 104 102 98 93
82 80 71 70 77 72 76 80 87 92 94 94 100 93 93 91 94 101 100 100 94 91
87 89 85 74 77 79 73 79 83 91 89 89 91 87 73 82 93 103 96 95 92 95
92 93 92 84 79 80 74 76 73 83 90 86 85 74 61 67 87 98 91 95 95 91
95 96 95 86 84 75 75 71 65 76 84 88 85 85 71 75 88 91 90 91 95 68
Wind_Direction_850mb
250 251 251 247 247 245 245 249 259 257 252 248 246 246 246 245 245 246 245 245 245 244
255 253 252 253 248 245 244 246 251 257 257 252 247 245 246 245 245 245 244 244 246 245
288 261 256 253 253 248 245 243 243 249 257 256 250 245 244 243 244 242 243 243 244 243
306 288 267 255 253 254 249 245 243 244 251 256 254 248 242 242 241 238 241 242 242 242
296 297 285 270 257 252 252 248 245 243 245 245 253 253 244 240 240 238 239 240 240 240
298 296 297 287 277 258 251 250 246 244 242 241 243 251 249 241 240 240 240 241 240 239
306 300 298 297 280 270 257 252 246 242 243 241 241 242 248 244 239 239 239 240 239 239
307 306 295 295 290 273 263 257 250 246 243 241 242 240 242 248 241 239 239 238 237 238
311 306 300 290 288 278 265 257 252 248 246 242 240 238 240 249 247 241 239 237 236 236
320 305 307 298 290 280 271 260 251 249 248 247 243 241 238 246 250 244 241 239 236 233
328 315 305 306 298 286 275 264 258 253 251 250 248 245 241 244 248 245 242 240 237 231
322 322 313 302 303 297 283 269 259 258 255 252 250 245 243 255 247 242 239 238 234 232
320 317 318 306 298 296 288 281 261 260 259 255 247 244 240 241 244 241 235 237 238 225
319 314 313 310 298 291 286 279 262 258 259 255 250 242 235 233 234 230 237 234 228 236